Back to catalog

FENGYUN 1C DEB

AliveLEO
NORAD 32356·DEBRIS·🇨🇳 China

Launched May 10, 1999 from Taiyuan Satellite Launch Center

Loading…

Next Passes (next 24 hours)

TLE

FreshSource: Space-Track

Epoch: Sep 12, 2026, 20:35 UTC

1 32356U 99025CYZ 26255.85764831  .00002501  00000-0  14898-2 0  9996
2 32356 102.4941 224.8612 0123582  69.1797 292.2543 14.05103440722355

Track FENGYUN 1C DEB in real time with AllMySat

Download on the App Store